Location: Kawakawa
(35.3830°S, 174.0670°E)
Time: 13:43:33
(UTC+13:00)

Explorer 11/Cluster Stage 4 - All Passes

Search period start: 13 December 2019 00:00
Search period end: 23 December 2019 00:00
Orbit: 467 x 1259 km, 28.8° (Epoch: 12 December)

Date Brightness Start Highest point End Pass type
(mag) Time Alt. Az. Time Alt. Az. Time Alt. Az.
13 Dec - 00:11:27 10° WNW 00:16:12 42° N 00:22:07 10° ENE night (unlit)
13 Dec - 01:59:08 10° WNW 02:04:39 42° N 02:11:21 10° ENE visible
13 Dec - 03:47:46 10° WNW 03:53:16 27° NNW 03:59:31 10° NE visible
13 Dec - 05:40:03 10° NW 05:41:46 11° NNW 05:43:32 10° NNW daylight
13 Dec - 22:14:07 10° NNW 22:17:33 23° NNE 22:21:33 10° ENE visible
14 Dec - 00:00:55 10° WNW 00:05:29 41° N 00:11:10 10° ENE night (unlit)
14 Dec - 01:48:39 10° WNW 01:53:53 39° N 02:00:15 10° ENE night (unlit)
14 Dec - 03:37:23 10° WNW 03:42:25 23° NNW 03:48:07 10° NNE visible
14 Dec - 22:03:28 10° NW 22:06:51 24° NNE 22:10:48 10° ENE visible
14 Dec - 23:50:25 10° WNW 23:54:48 40° N 00:00:13 10° ENE visible
15 Dec - 01:38:12 10° WNW 01:43:08 35° N 01:49:08 10° NE night (unlit)
15 Dec - 03:27:09 10° WNW 03:31:35 20° NNW 03:36:36 10° NNE visible
15 Dec - 21:52:51 10° NW 21:56:12 26° NNE 22:00:04 10° ENE visible
15 Dec - 23:39:56 10° WNW 23:44:08 39° N 23:49:17 10° ENE visible
16 Dec - 01:27:46 10° WNW 01:32:24 31° NNW 01:37:59 10° NE night (unlit)
16 Dec - 03:17:03 10° WNW 03:20:48 16° NNW 03:24:56 10° NNE night (unlit)
16 Dec - 21:42:15 10° NW 21:45:33 27° NNE 21:49:20 10° ENE visible
16 Dec - 23:29:28 10° WNW 23:33:29 37° N 23:38:22 10° ENE visible
17 Dec - 01:17:25 10° WNW 01:21:41 28° NNW 01:26:48 10° NE night (unlit)
17 Dec - 03:07:14 10° NW 03:10:00 13° NNW 03:13:00 10° N night (unlit)
17 Dec - 19:46:12 10° N 19:47:19 11° NNE 19:48:28 10° NE daylight
17 Dec - 21:31:39 10° NW 21:34:56 28° N 21:38:37 10° ENE visible
17 Dec - 23:19:01 10° WNW 23:22:51 35° N 23:27:26 10° ENE visible
18 Dec - 01:07:05 10° WNW 01:10:59 24° NNW 01:15:35 10° NE night (unlit)
18 Dec - 02:58:28 10° NNW 02:59:15 10° NNW 03:00:02 10° NNW night (unlit)
18 Dec - 19:34:55 10° N 19:36:40 13° NNE 19:38:26 10° NE daylight
18 Dec - 21:21:05 10° NW 21:24:19 29° N 21:27:55 10° ENE visible
18 Dec - 23:08:34 10° WNW 23:12:13 32° N 23:16:30 10° ENE visible
19 Dec - 00:56:51 10° WNW 01:00:18 20° NNW 01:04:16 10° NNE night (unlit)
19 Dec - 19:23:51 10° NNW 19:26:02 15° NNE 19:28:12 10° NE daylight
19 Dec - 21:10:30 10° NW 21:13:44 29° N 21:17:14 10° ENE visible
19 Dec - 22:58:09 10° WNW 23:01:37 29° N 23:05:36 10° NE visible
20 Dec - 00:46:44 10° WNW 00:49:37 16° NNW 00:52:53 10° NNE night (unlit)
20 Dec - 19:12:53 10° NNW 19:15:24 17° NNE 19:17:53 10° ENE daylight
20 Dec - 20:59:55 10° WNW 21:03:08 29° N 21:06:34 10° ENE visible
20 Dec - 22:47:45 10° WNW 22:51:00 26° N 22:54:40 10° NE visible
21 Dec - 00:36:49 10° NW 00:38:58 13° NNW 00:41:17 10° N night (unlit)
21 Dec - 19:01:57 10° NW 19:04:47 20° NNE 19:07:31 10° ENE daylight
21 Dec - 20:49:20 10° WNW 20:52:34 29° N 20:55:54 10° ENE daylight
21 Dec - 22:37:21 10° WNW 22:40:24 23° N 22:43:44 10° NE visible
22 Dec - 00:27:41 10° NNW 00:28:18 10° NNW 00:28:56 10° NNW night (unlit)
22 Dec - 18:51:04 10° NW 18:54:12 22° N 18:57:07 10° ENE daylight
22 Dec - 20:38:45 10° WNW 20:41:59 29° N 20:45:15 10° ENE daylight
22 Dec - 22:27:00 10° WNW 22:29:47 20° NNW 22:32:46 10° NE visible
